Year,Month,Day,Hour,Minute,Value (Times are PST for temperature in C)
2010,07,18,00,00,14.00
2010,07,18,00,01,13.90
2010,07,18,00,02,13.90
2010,07,18,00,03,13.80
2010,07,18,00,04,13.80
2010,07,18,00,05,13.80
2010,07,18,00,06,13.80
2010,07,18,00,07,13.80
2010,07,18,00,08,13.70
2010,07,18,00,09,13.70
2010,07,18,00,10,13.70
2010,07,18,00,11,13.70
2010,07,18,00,12,13.70
2010,07,18,00,13,13.60
2010,07,18,00,14,13.60
2010,07,18,00,15,13.60
2010,07,18,00,16,13.60
2010,07,18,00,17,13.60
2010,07,18,00,18,13.60
2010,07,18,00,19,13.60
2010,07,18,00,20,13.60
2010,07,18,00,21,13.60
2010,07,18,00,22,13.60
2010,07,18,00,23,13.50
2010,07,18,00,24,13.60
2010,07,18,00,25,13.60
2010,07,18,00,26,13.50
2010,07,18,00,27,13.50
2010,07,18,00,28,13.50
2010,07,18,00,29,13.50
2010,07,18,00,30,13.50
2010,07,18,00,31,13.50
2010,07,18,00,32,13.50
2010,07,18,00,33,13.50
2010,07,18,00,34,13.40
2010,07,18,00,35,13.40
2010,07,18,00,36,13.40
2010,07,18,00,37,13.40
2010,07,18,00,38,13.40
2010,07,18,00,39,13.40
2010,07,18,00,40,13.40
2010,07,18,00,41,13.40
2010,07,18,00,42,13.30
2010,07,18,00,43,13.30
2010,07,18,00,44,13.30
2010,07,18,00,45,13.30
2010,07,18,00,46,13.30
2010,07,18,00,47,13.30
2010,07,18,00,48,13.30
2010,07,18,00,49,13.30
2010,07,18,00,50,13.30
2010,07,18,00,51,13.30
2010,07,18,00,52,13.30
2010,07,18,00,53,13.30
2010,07,18,00,54,13.30
2010,07,18,00,55,13.30
2010,07,18,00,56,13.30
2010,07,18,00,57,13.30
2010,07,18,00,58,13.30
2010,07,18,00,59,13.30
2010,07,18,01,00,13.30
2010,07,18,01,01,13.30
2010,07,18,01,02,13.30
2010,07,18,01,03,13.30
2010,07,18,01,04,13.30
2010,07,18,01,05,13.30
2010,07,18,01,06,13.40
2010,07,18,01,07,13.40
2010,07,18,01,08,13.40
2010,07,18,01,09,13.40
2010,07,18,01,10,13.40
2010,07,18,01,11,13.40
2010,07,18,01,12,13.30
2010,07,18,01,13,13.30
2010,07,18,01,14,13.30
2010,07,18,01,15,13.30
2010,07,18,01,16,13.30
2010,07,18,01,17,13.30
2010,07,18,01,18,13.30
2010,07,18,01,19,13.20
2010,07,18,01,20,13.20
2010,07,18,01,21,13.20
2010,07,18,01,22,13.20
2010,07,18,01,23,13.20
2010,07,18,01,24,13.20
2010,07,18,01,25,13.20
2010,07,18,01,26,13.20
2010,07,18,01,27,13.20
2010,07,18,01,28,13.20
2010,07,18,01,29,13.20
2010,07,18,01,30,13.20
2010,07,18,01,31,13.20
2010,07,18,01,32,13.20
2010,07,18,01,33,13.20
2010,07,18,01,34,13.20
2010,07,18,01,35,13.10
2010,07,18,01,36,13.10
2010,07,18,01,37,13.10
2010,07,18,01,38,13.10
2010,07,18,01,39,13.00
2010,07,18,01,40,13.00
2010,07,18,01,41,13.00
2010,07,18,01,42,13.00
2010,07,18,01,43,12.90
2010,07,18,01,44,12.90
2010,07,18,01,45,12.80
2010,07,18,01,46,12.80
2010,07,18,01,47,12.80
2010,07,18,01,48,12.80
2010,07,18,01,49,12.80
2010,07,18,01,50,12.80
2010,07,18,01,51,12.80
2010,07,18,01,52,12.80
2010,07,18,01,53,12.80
2010,07,18,01,54,12.80
2010,07,18,01,55,12.80
2010,07,18,01,56,12.70
2010,07,18,01,57,12.70
2010,07,18,01,58,12.70
2010,07,18,01,59,12.70
2010,07,18,02,00,12.70
2010,07,18,02,01,12.70
2010,07,18,02,02,12.70
2010,07,18,02,03,12.70
2010,07,18,02,04,12.70
2010,07,18,02,05,12.70
2010,07,18,02,06,12.70
2010,07,18,02,07,12.70
2010,07,18,02,08,12.60
2010,07,18,02,09,12.60
2010,07,18,02,10,12.60
2010,07,18,02,11,12.60
2010,07,18,02,12,12.60
2010,07,18,02,13,12.60
2010,07,18,02,14,12.50
2010,07,18,02,15,12.50
2010,07,18,02,16,12.50
2010,07,18,02,17,12.50
2010,07,18,02,18,12.40
2010,07,18,02,19,12.40
2010,07,18,02,20,12.40
2010,07,18,02,21,12.40
2010,07,18,02,22,12.30
2010,07,18,02,23,12.30
2010,07,18,02,24,12.30
2010,07,18,02,25,12.30
2010,07,18,02,26,12.30
2010,07,18,02,27,12.30
2010,07,18,02,28,12.30
2010,07,18,02,29,12.30
2010,07,18,02,30,12.30
2010,07,18,02,31,12.20
2010,07,18,02,32,12.20
2010,07,18,02,33,12.20
2010,07,18,02,34,12.20
2010,07,18,02,35,12.20
2010,07,18,02,36,12.20
2010,07,18,02,37,12.20
2010,07,18,02,38,12.20
2010,07,18,02,39,12.20
2010,07,18,02,40,12.20
2010,07,18,02,41,12.20
2010,07,18,02,42,12.10
2010,07,18,02,43,12.10
2010,07,18,02,44,12.10
2010,07,18,02,45,12.10
2010,07,18,02,46,12.10
2010,07,18,02,47,12.10
2010,07,18,02,48,12.10
2010,07,18,02,49,12.10
2010,07,18,02,50,12.00
2010,07,18,02,51,12.00
2010,07,18,02,52,12.00
2010,07,18,02,53,12.00
2010,07,18,02,54,12.00
2010,07,18,02,55,12.00
2010,07,18,02,56,11.90
2010,07,18,02,57,11.90
2010,07,18,02,58,11.90
2010,07,18,02,59,11.90
2010,07,18,03,00,11.90
2010,07,18,03,01,11.90
2010,07,18,03,02,11.90
2010,07,18,03,03,11.90
2010,07,18,03,04,11.90
2010,07,18,03,05,11.80
2010,07,18,03,06,11.80
2010,07,18,03,07,11.80
2010,07,18,03,08,11.80
2010,07,18,03,09,11.80
2010,07,18,03,10,11.80
2010,07,18,03,11,11.80
2010,07,18,03,12,11.80
2010,07,18,03,13,11.80
2010,07,18,03,14,11.80
2010,07,18,03,15,11.80
2010,07,18,03,16,11.80
2010,07,18,03,17,11.70
2010,07,18,03,18,11.70
2010,07,18,03,19,11.70
2010,07,18,03,20,11.70
2010,07,18,03,21,11.80
2010,07,18,03,22,11.80
2010,07,18,03,23,11.80
2010,07,18,03,24,11.80
2010,07,18,03,25,11.80
2010,07,18,03,26,11.80
2010,07,18,03,27,11.80
2010,07,18,03,28,11.80
2010,07,18,03,29,11.70
2010,07,18,03,30,11.80
2010,07,18,03,31,11.80
2010,07,18,03,32,11.80
2010,07,18,03,33,11.80
2010,07,18,03,34,11.80
2010,07,18,03,35,11.80
2010,07,18,03,36,11.80
2010,07,18,03,37,11.80
2010,07,18,03,38,11.80
2010,07,18,03,39,11.70
2010,07,18,03,40,11.70
2010,07,18,03,41,11.70
2010,07,18,03,42,11.70
2010,07,18,03,43,11.60
2010,07,18,03,44,11.60
2010,07,18,03,45,11.60
2010,07,18,03,46,11.60
2010,07,18,03,47,11.60
2010,07,18,03,48,11.60
2010,07,18,03,49,11.50
2010,07,18,03,50,11.50
2010,07,18,03,51,11.50
2010,07,18,03,52,11.50
2010,07,18,03,53,11.50
2010,07,18,03,54,11.50
2010,07,18,03,55,11.50
2010,07,18,03,56,11.50
2010,07,18,03,57,11.50
2010,07,18,03,58,11.50
2010,07,18,03,59,11.50
2010,07,18,04,00,11.50
2010,07,18,04,01,11.50
2010,07,18,04,02,11.50
2010,07,18,04,03,11.40
2010,07,18,04,04,11.40
2010,07,18,04,05,11.40
2010,07,18,04,06,11.40
2010,07,18,04,07,11.30
2010,07,18,04,08,11.30
2010,07,18,04,09,11.30
2010,07,18,04,10,11.30
2010,07,18,04,11,11.20
2010,07,18,04,12,11.20
2010,07,18,04,13,11.20
2010,07,18,04,14,11.20
2010,07,18,04,15,11.30
2010,07,18,04,16,11.30
2010,07,18,04,17,11.30
2010,07,18,04,18,11.30
2010,07,18,04,19,11.30
2010,07,18,04,20,11.30
2010,07,18,04,21,11.30
2010,07,18,04,22,11.30
2010,07,18,04,23,11.30
2010,07,18,04,24,11.30
2010,07,18,04,25,11.30
2010,07,18,04,26,11.30
2010,07,18,04,27,11.30
2010,07,18,04,28,11.20
2010,07,18,04,29,11.20
2010,07,18,04,30,11.20
2010,07,18,04,31,11.10
2010,07,18,04,32,11.10
2010,07,18,04,33,11.10
2010,07,18,04,34,11.00
2010,07,18,04,35,11.00
2010,07,18,04,36,11.00
2010,07,18,04,37,11.00
2010,07,18,04,38,10.90
2010,07,18,04,39,10.90
2010,07,18,04,40,10.90
2010,07,18,04,41,10.90
2010,07,18,04,42,10.90
2010,07,18,04,43,10.90
2010,07,18,04,44,10.90
2010,07,18,04,45,10.90
2010,07,18,04,46,10.90
2010,07,18,04,47,10.90
2010,07,18,04,48,10.90
2010,07,18,04,49,10.90
2010,07,18,04,50,10.90
2010,07,18,04,51,10.90
2010,07,18,04,52,10.90
2010,07,18,04,53,10.90
2010,07,18,04,54,10.90
2010,07,18,04,55,10.90
2010,07,18,04,56,10.90
2010,07,18,04,57,10.90
2010,07,18,04,58,10.90
2010,07,18,04,59,10.90
2010,07,18,05,00,10.90
2010,07,18,05,01,10.90
2010,07,18,05,02,10.90
2010,07,18,05,03,10.90
2010,07,18,05,04,10.90
2010,07,18,05,05,10.90
2010,07,18,05,06,10.90
2010,07,18,05,07,10.90
2010,07,18,05,08,10.80
2010,07,18,05,09,10.80
2010,07,18,05,10,10.80
2010,07,18,05,11,10.80
2010,07,18,05,12,10.70
2010,07,18,05,13,10.70
2010,07,18,05,14,10.70
2010,07,18,05,15,10.70
2010,07,18,05,16,10.70
2010,07,18,05,17,10.70
2010,07,18,05,18,10.60
2010,07,18,05,19,10.60
2010,07,18,05,20,10.60
2010,07,18,05,21,10.60
2010,07,18,05,22,10.60
2010,07,18,05,23,10.60
2010,07,18,05,24,10.60
2010,07,18,05,25,10.60
2010,07,18,05,26,10.60
2010,07,18,05,27,10.60
2010,07,18,05,28,10.60
2010,07,18,05,29,10.60
2010,07,18,05,30,10.60
2010,07,18,05,31,10.60
2010,07,18,05,32,10.60
2010,07,18,05,33,10.60
2010,07,18,05,34,10.60
2010,07,18,05,35,10.60
2010,07,18,05,36,10.60
2010,07,18,05,37,10.60
2010,07,18,05,38,10.60
2010,07,18,05,39,10.60
2010,07,18,05,40,10.60
2010,07,18,05,41,10.60
2010,07,18,05,42,10.60
2010,07,18,05,43,10.60
2010,07,18,05,44,10.60
2010,07,18,05,45,10.70
2010,07,18,05,46,10.70
2010,07,18,05,47,10.70
2010,07,18,05,48,10.70
2010,07,18,05,49,10.70
2010,07,18,05,50,10.60
2010,07,18,05,51,10.60
2010,07,18,05,52,10.60
2010,07,18,05,53,10.60
2010,07,18,05,54,10.60
2010,07,18,05,55,10.60
2010,07,18,05,56,10.60
2010,07,18,05,57,10.60
2010,07,18,05,58,10.60
2010,07,18,05,59,10.60
2010,07,18,06,00,10.60
2010,07,18,06,01,10.60
2010,07,18,06,02,10.60
2010,07,18,06,03,10.60
2010,07,18,06,04,10.60
2010,07,18,06,05,10.60
2010,07,18,06,06,10.60
2010,07,18,06,07,10.60
2010,07,18,06,08,10.60
2010,07,18,06,09,10.50
2010,07,18,06,10,10.50
2010,07,18,06,11,10.50
2010,07,18,06,12,10.50
2010,07,18,06,13,10.50
2010,07,18,06,14,10.60
2010,07,18,06,15,10.60
2010,07,18,06,16,10.60
2010,07,18,06,17,10.60
2010,07,18,06,18,10.60
2010,07,18,06,19,10.60
2010,07,18,06,20,10.60
2010,07,18,06,21,10.70
2010,07,18,06,22,10.70
2010,07,18,06,23,10.70
2010,07,18,06,24,10.70
2010,07,18,06,25,10.80
2010,07,18,06,26,10.80
2010,07,18,06,27,10.80
2010,07,18,06,28,10.80
2010,07,18,06,29,10.80
2010,07,18,06,30,10.90
2010,07,18,06,31,10.90
2010,07,18,06,32,10.90
2010,07,18,06,33,10.90
2010,07,18,06,34,11.00
2010,07,18,06,35,11.00
2010,07,18,06,36,11.00
2010,07,18,06,37,11.10
2010,07,18,06,38,11.10
2010,07,18,06,39,11.10
2010,07,18,06,40,11.10
2010,07,18,06,41,11.20
2010,07,18,06,42,11.20
2010,07,18,06,43,11.20
2010,07,18,06,44,11.20
2010,07,18,06,45,11.20
2010,07,18,06,46,11.20
2010,07,18,06,47,11.30
2010,07,18,06,48,11.30
2010,07,18,06,49,11.40
2010,07,18,06,50,11.40
2010,07,18,06,51,11.50
2010,07,18,06,52,11.50
2010,07,18,06,53,11.60
2010,07,18,06,54,11.60
2010,07,18,06,55,11.60
2010,07,18,06,56,11.70
2010,07,18,06,57,11.70
2010,07,18,06,58,11.70
2010,07,18,06,59,11.80
2010,07,18,07,00,11.80
2010,07,18,07,01,11.80
2010,07,18,07,02,11.90
2010,07,18,07,03,11.90
2010,07,18,07,04,12.00
2010,07,18,07,05,12.10
2010,07,18,07,06,12.20
2010,07,18,07,07,12.20
2010,07,18,07,08,12.30
2010,07,18,07,09,12.40
2010,07,18,07,10,12.50
2010,07,18,07,11,12.50
2010,07,18,07,12,12.60
2010,07,18,07,13,12.70
2010,07,18,07,14,12.70
2010,07,18,07,15,12.80
2010,07,18,07,16,12.90
2010,07,18,07,17,12.90
2010,07,18,07,18,13.10
2010,07,18,07,19,13.20
2010,07,18,07,20,13.20
2010,07,18,07,21,13.30
2010,07,18,07,22,13.40
2010,07,18,07,23,13.50
2010,07,18,07,24,13.60
2010,07,18,07,25,13.60
2010,07,18,07,26,13.70
2010,07,18,07,27,13.80
2010,07,18,07,28,13.80
2010,07,18,07,29,13.90
2010,07,18,07,30,13.90
2010,07,18,07,31,14.00
2010,07,18,07,32,14.10
2010,07,18,07,33,14.10
2010,07,18,07,34,14.20
2010,07,18,07,35,14.20
2010,07,18,07,36,14.30
2010,07,18,07,37,14.30
2010,07,18,07,38,14.40
2010,07,18,07,39,14.50
2010,07,18,07,40,14.60
2010,07,18,07,41,14.70
2010,07,18,07,42,14.70
2010,07,18,07,43,14.80
2010,07,18,07,44,14.90
2010,07,18,07,45,15.00
2010,07,18,07,46,15.00
2010,07,18,07,47,15.00
2010,07,18,07,48,15.00
2010,07,18,07,49,15.00
2010,07,18,07,50,15.10
2010,07,18,07,51,15.20
2010,07,18,07,52,15.20
2010,07,18,07,53,15.20
2010,07,18,07,54,15.30
2010,07,18,07,55,15.30
2010,07,18,07,56,15.30
2010,07,18,07,57,15.30
2010,07,18,07,58,15.30
2010,07,18,07,59,15.40
2010,07,18,08,00,15.40
2010,07,18,08,01,15.40
2010,07,18,08,02,15.40
2010,07,18,08,03,15.40
2010,07,18,08,04,15.40
2010,07,18,08,05,15.50
2010,07,18,08,06,15.50
2010,07,18,08,07,15.60
2010,07,18,08,08,15.60
2010,07,18,08,09,15.70
2010,07,18,08,10,15.80
2010,07,18,08,11,15.80
2010,07,18,08,12,15.80
2010,07,18,08,13,15.90
2010,07,18,08,14,15.90
2010,07,18,08,15,15.90
2010,07,18,08,16,16.00
2010,07,18,08,17,16.00
2010,07,18,08,18,16.10
2010,07,18,08,19,16.20
2010,07,18,08,20,16.20
2010,07,18,08,21,16.20
2010,07,18,08,22,16.30
2010,07,18,08,23,16.30
2010,07,18,08,24,16.30
2010,07,18,08,25,16.30
2010,07,18,08,26,16.30
2010,07,18,08,27,16.30
2010,07,18,08,28,16.30
2010,07,18,08,29,16.40
2010,07,18,08,30,16.40
2010,07,18,08,31,16.50
2010,07,18,08,32,16.50
2010,07,18,08,33,16.50
2010,07,18,08,34,16.50
2010,07,18,08,35,16.60
2010,07,18,08,36,16.60
2010,07,18,08,37,16.70
2010,07,18,08,38,16.70
2010,07,18,08,39,16.70
2010,07,18,08,40,16.80
2010,07,18,08,41,16.90
2010,07,18,08,42,16.90
2010,07,18,08,43,16.90
2010,07,18,08,44,16.90
2010,07,18,08,45,16.80
2010,07,18,08,46,16.60
2010,07,18,08,47,16.50
2010,07,18,08,48,16.40
2010,07,18,08,49,16.50
2010,07,18,08,50,16.50
2010,07,18,08,51,16.60
2010,07,18,08,52,16.50
2010,07,18,08,53,16.40
2010,07,18,08,54,16.40
2010,07,18,08,55,16.30
2010,07,18,08,56,16.30
2010,07,18,08,57,16.30
2010,07,18,08,58,16.30
2010,07,18,08,59,16.30
2010,07,18,09,00,16.40
2010,07,18,09,01,16.50
2010,07,18,09,02,16.60
2010,07,18,09,03,16.70
2010,07,18,09,04,16.80
2010,07,18,09,05,17.00
2010,07,18,09,06,17.00
2010,07,18,09,07,17.10
2010,07,18,09,08,17.10
2010,07,18,09,09,17.20
2010,07,18,09,10,17.10
2010,07,18,09,11,17.10
2010,07,18,09,12,17.10
2010,07,18,09,13,17.20
2010,07,18,09,14,17.30
2010,07,18,09,15,17.30
2010,07,18,09,16,17.30
2010,07,18,09,17,17.30
2010,07,18,09,18,17.30
2010,07,18,09,19,17.40
2010,07,18,09,20,17.40
2010,07,18,09,21,17.40
2010,07,18,09,22,17.40
2010,07,18,09,23,17.30
2010,07,18,09,24,17.10
2010,07,18,09,25,17.00
2010,07,18,09,26,16.90
2010,07,18,09,27,17.00
2010,07,18,09,28,17.00
2010,07,18,09,29,17.00
2010,07,18,09,30,17.00
2010,07,18,09,31,16.90
2010,07,18,09,32,16.80
2010,07,18,09,33,16.80
2010,07,18,09,34,16.80
2010,07,18,09,35,16.80
2010,07,18,09,36,16.80
2010,07,18,09,37,16.80
2010,07,18,09,38,16.90
2010,07,18,09,39,17.00
2010,07,18,09,40,17.00
2010,07,18,09,41,17.10
2010,07,18,09,42,17.30
2010,07,18,09,43,17.40
2010,07,18,09,44,17.40
2010,07,18,09,45,17.30
2010,07,18,09,46,17.30
2010,07,18,09,47,17.20
2010,07,18,09,48,17.10
2010,07,18,09,49,17.10
2010,07,18,09,50,17.10
2010,07,18,09,51,17.20
2010,07,18,09,52,17.30
2010,07,18,09,53,17.40
2010,07,18,09,54,17.60
2010,07,18,09,55,17.70
2010,07,18,09,56,17.70
2010,07,18,09,57,17.60
2010,07,18,09,58,17.40
2010,07,18,09,59,17.40
2010,07,18,10,00,17.50
2010,07,18,10,01,17.50
2010,07,18,10,02,17.60
2010,07,18,10,03,17.80
2010,07,18,10,04,17.80
2010,07,18,10,05,17.90
2010,07,18,10,06,18.00
2010,07,18,10,07,18.00
2010,07,18,10,08,18.10
2010,07,18,10,09,17.90
2010,07,18,10,10,17.80
2010,07,18,10,11,17.80
2010,07,18,10,12,17.80
2010,07,18,10,13,17.60
2010,07,18,10,14,17.40
2010,07,18,10,15,17.30
2010,07,18,10,16,17.10
2010,07,18,10,17,17.10
2010,07,18,10,18,17.10
2010,07,18,10,19,17.10
2010,07,18,10,20,17.10
2010,07,18,10,21,17.00
2010,07,18,10,22,17.00
2010,07,18,10,23,16.90
2010,07,18,10,24,17.00
2010,07,18,10,25,17.10
2010,07,18,10,26,17.20
2010,07,18,10,27,17.10
2010,07,18,10,28,17.10
2010,07,18,10,29,17.00
2010,07,18,10,30,17.00
2010,07,18,10,31,17.00
2010,07,18,10,32,17.00
2010,07,18,10,33,16.90
2010,07,18,10,34,16.90
2010,07,18,10,35,17.00
2010,07,18,10,36,17.00
2010,07,18,10,37,16.90
2010,07,18,10,38,16.90
2010,07,18,10,39,16.90
2010,07,18,10,40,16.90
2010,07,18,10,41,16.90
2010,07,18,10,42,16.90
2010,07,18,10,43,17.00
2010,07,18,10,44,17.00
2010,07,18,10,45,17.00
2010,07,18,10,46,17.00
2010,07,18,10,47,16.90
2010,07,18,10,48,16.80
2010,07,18,10,49,16.80
2010,07,18,10,50,16.80
2010,07,18,10,51,16.80
2010,07,18,10,52,16.80
2010,07,18,10,53,16.60
2010,07,18,10,54,16.50
2010,07,18,10,55,16.50
2010,07,18,10,56,16.40
2010,07,18,10,57,16.30
2010,07,18,10,58,16.20
2010,07,18,10,59,16.10
2010,07,18,11,00,16.20
2010,07,18,11,01,16.20
2010,07,18,11,02,16.30
2010,07,18,11,03,16.20
2010,07,18,11,04,16.30
2010,07,18,11,05,16.30
2010,07,18,11,06,16.40
2010,07,18,11,07,16.40
2010,07,18,11,08,16.40
2010,07,18,11,09,16.40
2010,07,18,11,10,16.30
2010,07,18,11,11,16.20
2010,07,18,11,12,16.20
2010,07,18,11,13,16.20
2010,07,18,11,14,16.10
2010,07,18,11,15,16.10
2010,07,18,11,16,16.10
2010,07,18,11,17,16.00
2010,07,18,11,18,16.00
2010,07,18,11,19,16.00
2010,07,18,11,20,16.00
2010,07,18,11,21,15.90
2010,07,18,11,22,15.80
2010,07,18,11,23,15.90
2010,07,18,11,24,15.90
2010,07,18,11,25,15.80
2010,07,18,11,26,15.60
2010,07,18,11,27,15.60
2010,07,18,11,28,15.50
2010,07,18,11,29,15.50
2010,07,18,11,30,15.40
2010,07,18,11,31,15.40
2010,07,18,11,32,15.40
2010,07,18,11,33,15.30
2010,07,18,11,34,15.10
2010,07,18,11,35,15.10
2010,07,18,11,36,15.00
2010,07,18,11,37,15.00
2010,07,18,11,38,15.00
2010,07,18,11,39,14.90
2010,07,18,11,40,14.90
2010,07,18,11,41,14.90
2010,07,18,11,42,14.90
2010,07,18,11,43,14.90
2010,07,18,11,44,15.00
2010,07,18,11,45,15.00
2010,07,18,11,46,14.90
2010,07,18,11,47,14.80
2010,07,18,11,48,15.00
2010,07,18,11,49,15.00
2010,07,18,11,50,14.90
2010,07,18,11,51,14.70
2010,07,18,11,52,14.60
2010,07,18,11,53,14.50
2010,07,18,11,54,14.40
2010,07,18,11,55,14.30
2010,07,18,11,56,14.10
2010,07,18,11,57,13.90
2010,07,18,11,58,13.70
2010,07,18,11,59,13.60
2010,07,18,12,00,13.60
2010,07,18,12,01,13.60
2010,07,18,12,02,13.50
2010,07,18,12,03,13.50
2010,07,18,12,04,13.60
2010,07,18,12,05,13.50
2010,07,18,12,06,13.40
2010,07,18,12,07,13.30
2010,07,18,12,08,13.20
2010,07,18,12,09,13.20
2010,07,18,12,10,13.30
2010,07,18,12,11,13.40
2010,07,18,12,12,13.40
2010,07,18,12,13,13.40
2010,07,18,12,14,13.40
2010,07,18,12,15,13.40
2010,07,18,12,16,13.40
2010,07,18,12,17,13.30
2010,07,18,12,18,13.20
2010,07,18,12,19,13.20
2010,07,18,12,20,13.20
2010,07,18,12,21,13.30
2010,07,18,12,22,13.30
2010,07,18,12,23,13.20
2010,07,18,12,24,13.30
2010,07,18,12,25,13.40
2010,07,18,12,26,13.30
2010,07,18,12,27,13.30
2010,07,18,12,28,13.20
2010,07,18,12,29,13.30
2010,07,18,12,30,13.10
2010,07,18,12,31,13.00
2010,07,18,12,32,12.90
2010,07,18,12,33,12.90
2010,07,18,12,34,12.90
2010,07,18,12,35,12.80
2010,07,18,12,36,12.80
2010,07,18,12,37,12.80
2010,07,18,12,38,12.70
2010,07,18,12,39,12.80
2010,07,18,12,40,12.80
2010,07,18,12,41,12.80
2010,07,18,12,42,12.80
2010,07,18,12,43,13.00
2010,07,18,12,44,13.10
2010,07,18,12,45,13.00
2010,07,18,12,46,12.90
2010,07,18,12,47,12.90
2010,07,18,12,48,12.80
2010,07,18,12,49,12.90
2010,07,18,12,50,12.90
2010,07,18,12,51,13.00
2010,07,18,12,52,13.00
2010,07,18,12,53,12.90
2010,07,18,12,54,12.80
2010,07,18,12,55,12.90
2010,07,18,12,56,13.00
2010,07,18,12,57,13.00
2010,07,18,12,58,13.10
2010,07,18,12,59,13.20
2010,07,18,13,00,13.30
2010,07,18,13,01,13.40
2010,07,18,13,02,13.30
2010,07,18,13,03,13.20
2010,07,18,13,04,13.20
2010,07,18,13,05,13.20
2010,07,18,13,06,13.30
2010,07,18,13,07,13.40
2010,07,18,13,08,13.50
2010,07,18,13,09,13.60
2010,07,18,13,10,13.60
2010,07,18,13,11,13.60
2010,07,18,13,12,13.70
2010,07,18,13,13,13.70
2010,07,18,13,14,13.60
2010,07,18,13,15,13.60
2010,07,18,13,16,13.60
2010,07,18,13,17,13.60
2010,07,18,13,18,13.70
2010,07,18,13,19,13.70
2010,07,18,13,20,13.80
2010,07,18,13,21,13.90
2010,07,18,13,22,14.00
2010,07,18,13,23,14.20
2010,07,18,13,24,14.30
2010,07,18,13,25,14.40
2010,07,18,13,26,14.50
2010,07,18,13,27,14.70
2010,07,18,13,28,14.70
2010,07,18,13,29,14.60
2010,07,18,13,30,14.50
2010,07,18,13,31,14.40
2010,07,18,13,32,14.30
2010,07,18,13,33,14.30
2010,07,18,13,34,14.30
2010,07,18,13,35,14.40
2010,07,18,13,36,14.30
2010,07,18,13,37,14.30
2010,07,18,13,38,14.40
2010,07,18,13,39,14.50
2010,07,18,13,40,14.50
2010,07,18,13,41,14.50
2010,07,18,13,42,14.60
2010,07,18,13,43,14.50
2010,07,18,13,44,14.40
2010,07,18,13,45,14.40
2010,07,18,13,46,14.60
2010,07,18,13,47,14.50
2010,07,18,13,48,14.50
2010,07,18,13,49,14.50
2010,07,18,13,50,14.50
2010,07,18,13,51,14.50
2010,07,18,13,52,14.50
2010,07,18,13,53,14.50
2010,07,18,13,54,14.50
2010,07,18,13,55,14.50
2010,07,18,13,56,14.60
2010,07,18,13,57,14.50
2010,07,18,13,58,14.60
2010,07,18,13,59,14.70
2010,07,18,14,00,14.70
2010,07,18,14,01,14.70
2010,07,18,14,02,14.70
2010,07,18,14,03,14.60
2010,07,18,14,04,14.50
2010,07,18,14,05,14.50
2010,07,18,14,06,14.40
2010,07,18,14,07,14.40
2010,07,18,14,08,14.30
2010,07,18,14,09,14.30
2010,07,18,14,10,14.40
2010,07,18,14,11,14.40
2010,07,18,14,12,14.40
2010,07,18,14,13,14.40
2010,07,18,14,14,14.40
2010,07,18,14,15,14.40
2010,07,18,14,16,14.40
2010,07,18,14,17,14.50
2010,07,18,14,18,14.60
2010,07,18,14,19,14.60
2010,07,18,14,20,14.70
2010,07,18,14,21,14.60
2010,07,18,14,22,14.60
2010,07,18,14,23,14.70
2010,07,18,14,24,14.70
2010,07,18,14,25,14.70
2010,07,18,14,26,14.70
2010,07,18,14,27,14.70
2010,07,18,14,28,14.80
2010,07,18,14,29,14.90
2010,07,18,14,30,15.00
2010,07,18,14,31,15.00
2010,07,18,14,32,15.00
2010,07,18,14,33,15.00
2010,07,18,14,34,15.00
2010,07,18,14,35,14.90
2010,07,18,14,36,14.90
2010,07,18,14,37,14.80
2010,07,18,14,38,14.80
2010,07,18,14,39,14.90
2010,07,18,14,40,15.00
2010,07,18,14,41,15.00
2010,07,18,14,42,15.00
2010,07,18,14,43,15.00
2010,07,18,14,44,15.00
2010,07,18,14,45,15.00
2010,07,18,14,46,15.10
2010,07,18,14,47,15.20
2010,07,18,14,48,15.30
2010,07,18,14,49,15.30
2010,07,18,14,50,15.30
2010,07,18,14,51,15.20
2010,07,18,14,52,15.20
2010,07,18,14,53,15.20
2010,07,18,14,54,15.30
2010,07,18,14,55,15.30
2010,07,18,14,56,15.30
2010,07,18,14,57,15.20
2010,07,18,14,58,15.20
2010,07,18,14,59,15.20
2010,07,18,15,00,15.20
2010,07,18,15,01,15.20
2010,07,18,15,02,15.30
2010,07,18,15,03,15.40
2010,07,18,15,04,15.40
2010,07,18,15,05,15.40
2010,07,18,15,06,15.30
2010,07,18,15,07,15.30
2010,07,18,15,08,15.30
2010,07,18,15,09,15.30
2010,07,18,15,10,15.30
2010,07,18,15,11,15.30
2010,07,18,15,12,15.30
2010,07,18,15,13,15.40
2010,07,18,15,14,15.40
2010,07,18,15,15,15.40
2010,07,18,15,16,15.50
2010,07,18,15,17,15.50
2010,07,18,15,18,15.50
2010,07,18,15,19,15.60
2010,07,18,15,20,15.60
2010,07,18,15,21,15.50
2010,07,18,15,22,15.40
2010,07,18,15,23,15.30
2010,07,18,15,24,15.30
2010,07,18,15,25,15.40
2010,07,18,15,26,15.50
2010,07,18,15,27,15.40
2010,07,18,15,28,15.30
2010,07,18,15,29,15.20
2010,07,18,15,30,15.20
2010,07,18,15,31,15.30
2010,07,18,15,32,15.40
2010,07,18,15,33,15.50
2010,07,18,15,34,15.50
2010,07,18,15,35,15.50
2010,07,18,15,36,15.40
2010,07,18,15,37,15.40
2010,07,18,15,38,15.30
2010,07,18,15,39,15.30
2010,07,18,15,40,15.30
2010,07,18,15,41,15.30
2010,07,18,15,42,15.20
2010,07,18,15,43,15.10
2010,07,18,15,44,15.00
2010,07,18,15,45,15.00
2010,07,18,15,46,15.00
2010,07,18,15,47,15.00
2010,07,18,15,48,15.00
2010,07,18,15,49,15.00
2010,07,18,15,50,15.00
2010,07,18,15,51,15.00
2010,07,18,15,52,15.00
2010,07,18,15,53,15.00
2010,07,18,15,54,15.00
2010,07,18,15,55,15.00
2010,07,18,15,56,15.00
2010,07,18,15,57,15.00
2010,07,18,15,58,15.00
2010,07,18,15,59,15.00
2010,07,18,16,00,14.90
2010,07,18,16,01,14.70
2010,07,18,16,02,14.70
2010,07,18,16,03,14.70
2010,07,18,16,04,14.70
2010,07,18,16,05,14.70
2010,07,18,16,06,14.60
2010,07,18,16,07,14.60
2010,07,18,16,08,14.60
2010,07,18,16,09,14.60
2010,07,18,16,10,14.60
2010,07,18,16,11,14.50
2010,07,18,16,12,14.50
2010,07,18,16,13,14.50
2010,07,18,16,14,14.40
2010,07,18,16,15,14.30
2010,07,18,16,16,14.40
2010,07,18,16,17,14.40
2010,07,18,16,18,14.50
2010,07,18,16,19,14.50
2010,07,18,16,20,14.50
2010,07,18,16,21,14.50
2010,07,18,16,22,14.60
2010,07,18,16,23,14.70
2010,07,18,16,24,14.80
2010,07,18,16,25,14.80
2010,07,18,16,26,14.90
2010,07,18,16,27,14.90
2010,07,18,16,28,14.80
2010,07,18,16,29,14.80
2010,07,18,16,30,14.80
2010,07,18,16,31,14.80
2010,07,18,16,32,14.80
2010,07,18,16,33,14.80
2010,07,18,16,34,14.70
2010,07,18,16,35,14.70
2010,07,18,16,36,14.70
2010,07,18,16,37,14.70
2010,07,18,16,38,14.60
2010,07,18,16,39,14.60
2010,07,18,16,40,14.60
2010,07,18,16,41,14.60
2010,07,18,16,42,14.40
2010,07,18,16,43,14.30
2010,07,18,16,44,14.20
2010,07,18,16,45,14.10
2010,07,18,16,46,14.00
2010,07,18,16,47,13.90
2010,07,18,16,48,13.80
2010,07,18,16,49,13.80
2010,07,18,16,50,13.90
2010,07,18,16,51,14.00
2010,07,18,16,52,14.10
2010,07,18,16,53,14.00
2010,07,18,16,54,14.00
2010,07,18,16,55,13.90
2010,07,18,16,56,14.00
2010,07,18,16,57,14.00
2010,07,18,16,58,14.10
2010,07,18,16,59,14.20
2010,07,18,17,00,14.20
2010,07,18,17,01,14.20
2010,07,18,17,02,14.20
2010,07,18,17,03,14.30
2010,07,18,17,04,14.30
2010,07,18,17,05,14.40
2010,07,18,17,06,14.40
2010,07,18,17,07,14.40
2010,07,18,17,08,14.50
2010,07,18,17,09,14.50
2010,07,18,17,10,14.50
2010,07,18,17,11,14.40
2010,07,18,17,12,14.40
2010,07,18,17,13,14.30
2010,07,18,17,14,14.30
2010,07,18,17,15,14.20
2010,07,18,17,16,14.20
2010,07,18,17,17,14.20
2010,07,18,17,18,14.10
2010,07,18,17,19,14.10